Date,TemperatureHighF,TemperatureAvgF,TemperatureLowF,DewpointHighF,DewpointAvgF,DewpointLowF,HumidityHigh,HumidityAvg,HumidityLow,PressureMaxIn,PressureMinIn,WindSpeedMaxMPH,WindSpeedAvgMPH,GustSpeedMaxMPH,PrecipitationSumIn
2013-1-1,21,12,4,-100,-100,-100,0,0,100,0.00,40.00,0,-999,0,0.00
2013-1-2,-4,-4,-4,-100,-100,-100,0,0,100,0.00,40.00,0,-999,0,0.00
2013-1-3,13,7,-1,-100,-100,-100,0,0,100,0.00,40.00,0,-999,0,0.00
2013-1-4,31,14,-3,-100,-100,-100,0,0,100,0.00,40.00,0,-999,0,0.00
2013-1-5,27,19,14,-100,-100,-100,0,0,100,0.00,40.00,0,-999,0,0.01
2013-1-6,32,25,15,-100,-100,-100,0,0,100,0.00,40.00,0,-999,0,0.00
2013-1-7,29,26,19,-100,-100,-100,0,0,100,0.00,40.00,0,-999,0,0.00
2013-1-8,33,33,33,-100,-100,-100,0,0,100,0.00,40.00,0,-999,0,0.00
2013-1-9,39,34,31,-100,-100,-100,0,0,100,0.00,40.00,0,-999,0,0.00
2013-1-10,29,22,14,-100,-100,-100,0,0,100,0.00,40.00,0,-999,0,0.00
2013-1-11,3,3,2,-100,-100,-100,0,0,100,0.00,40.00,0,-999,0,0.00
2013-1-12,3,-7,-15,-100,-100,-100,0,0,100,0.00,40.00,0,-999,0,0.00
2013-1-13,-3,-10,-16,-100,-100,-100,0,0,100,0.00,40.00,0,-999,0,0.00
2013-1-14,14,2,-11,-100,-100,-100,0,0,100,0.00,40.00,0,-999,0,0.00
2013-1-15,30,25,19,-100,-100,-100,0,0,100,0.00,40.00,0,-999,0,0.00
2013-1-16,28,22,17,-100,-100,-100,0,0,100,0.00,40.00,0,-999,0,0.00
2013-1-17,35,22,11,-100,-100,-100,0,0,100,0.00,40.00,0,-999,0,0.00
2013-1-18,35,28,23,-100,-100,-100,0,0,100,0.00,40.00,0,-999,0,0.00
2013-1-19,38,28,23,-100,-100,-100,0,0,100,0.00,40.00,0,-999,0,0.00
2013-1-20,41,32,25,-100,-100,-100,0,0,100,0.00,40.00,0,-999,0,0.00
2013-1-21,40,31,24,-100,-100,-100,0,0,100,0.00,40.00,0,-999,0,0.00
2013-1-22,31,23,16,-100,-100,-100,0,0,100,0.00,40.00,0,-999,0,0.00
2013-1-23,22,19,16,-100,-100,-100,0,0,100,0.00,40.00,0,-999,0,0.00
2013-1-27,14,14,14,-100,-100,-100,0,0,100,0.00,40.00,0,-999,0,0.00
2013-1-29,22,22,22,-100,-100,-100,0,0,100,0.00,40.00,0,-999,0,0.00
2013-1-30,25,25,25,-100,-100,-100,0,0,100,0.00,40.00,0,-999,0,0.00
2013-1-31,34,34,34,-100,-100,-100,0,0,100,0.00,40.00,0,-999,0,0.00
2013-2-3,39,34,28,-100,-100,-100,0,0,100,0.00,40.00,0,-999,0,0.00
2013-2-4,32,32,32,-100,-100,-100,0,0,100,0.00,40.00,0,-999,0,0.00
2013-2-5,33,33,33,-100,-100,-100,0,0,100,0.00,40.00,0,-999,0,0.00
2013-2-8,20,20,20,-100,-100,-100,0,0,100,0.00,40.00,0,-999,0,0.00
2013-2-9,19,8,1,-100,-100,-100,0,0,100,0.00,40.00,0,-999,0,0.00
2013-2-10,26,21,16,-100,-100,-100,0,0,100,0.00,40.00,0,-999,0,0.01
2013-2-11,23,23,23,-100,-100,-100,0,0,100,0.00,40.00,0,-999,0,0.00
2013-2-13,32,32,32,-100,-100,-100,0,0,100,0.00,40.00,0,-999,0,0.00
2013-2-14,28,26,25,-100,-100,-100,0,0,100,0.00,40.00,0,-999,0,0.00
2013-2-15,33,33,33,-100,-100,-100,0,0,100,0.00,40.00,0,-999,0,0.00
2013-2-16,41,24,16,-100,-100,-100,0,0,100,0.00,40.00,0,-999,0,0.00
2013-2-18,28,28,28,-100,-100,-100,0,0,100,0.00,40.00,0,-999,0,0.00
2013-2-19,19,19,19,-100,-100,-100,0,0,100,0.00,40.00,0,-999,0,0.00
2013-2-20,18,18,18,-100,-100,-100,0,0,100,0.00,40.00,0,-999,0,0.00
2013-2-21,11,11,11,-100,-100,-100,0,0,100,0.00,40.00,0,-999,0,0.00
2013-2-22,31,28,24,-100,-100,-100,0,0,100,0.00,40.00,0,-999,0,0.00
2013-2-24,30,30,30,-100,-100,-100,0,0,100,0.00,40.00,0,-999,0,0.00
2013-2-27,31,30,29,-100,-100,-100,0,0,100,0.00,40.00,0,-999,0,0.00
2013-2-28,33,28,24,-100,-100,-100,0,0,100,0.00,40.00,0,-999,0,0.00
2013-3-1,44,38,33,-100,-100,-100,0,0,100,0.00,40.00,0,-999,0,0.00
2013-3-2,45,38,30,-100,-100,-100,0,0,100,0.00,40.00,0,-999,0,0.00
2013-3-3,33,28,22,-100,-100,-100,0,0,100,0.00,40.00,0,-999,0,0.00
2013-3-4,21,18,16,-100,-100,-100,0,0,100,0.00,40.00,0,-999,0,0.00
2013-3-5,31,31,31,-100,-100,-100,0,0,100,0.00,40.00,0,-999,0,0.00
2013-3-6,31,24,20,-100,-100,-100,0,0,100,0.00,40.00,0,-999,0,0.00
2013-3-7,29,22,18,-100,-100,-100,0,0,100,0.00,40.00,0,-999,0,0.00
2013-3-8,36,21,8,-100,-100,-100,0,0,100,0.00,40.00,0,-999,0,0.00
2013-3-9,37,27,10,-100,-100,-100,0,0,100,0.00,40.00,0,-999,0,0.00
2013-3-10,42,35,21,-100,-100,-100,0,0,100,0.00,40.00,0,-999,0,0.00
2013-3-11,41,34,26,-100,-100,-100,0,0,100,0.00,40.00,0,-999,0,0.00
2013-3-12,43,33,22,-100,-100,-100,0,0,100,0.00,40.00,0,-999,0,0.00
2013-3-13,51,41,32,-100,-100,-100,0,0,100,0.00,40.00,0,-999,0,0.00
2013-3-14,52,40,32,-100,-100,-100,0,0,100,0.00,40.00,0,-999,0,0.00
2013-3-15,50,39,34,-100,-100,-100,0,0,100,0.00,40.00,0,-999,0,0.00
2013-3-16,41,36,30,-100,-100,-100,0,0,100,0.00,40.00,0,-999,0,0.00
2013-3-17,31,25,20,-100,-100,-100,0,0,100,0.00,40.00,0,-999,0,0.01
2013-3-18,34,23,15,-100,-100,-100,0,0,100,0.00,40.00,0,-999,0,0.00
2013-3-19,37,27,16,-100,-100,-100,0,0,100,0.00,40.00,0,-999,0,0.01
2013-3-20,43,33,26,-100,-100,-100,0,0,100,0.00,40.00,0,-999,0,0.01
2013-3-21,32,24,16,-100,-100,-100,0,0,100,0.00,40.00,0,-999,0,0.00
2013-3-22,26,17,4,-100,-100,-100,0,0,100,0.00,40.00,0,-999,0,0.00
2013-3-23,23,15,5,-100,-100,-100,0,0,100,0.00,40.00,0,-999,0,0.00
2013-3-24,29,15,3,-100,-100,-100,0,0,100,0.00,40.00,0,-999,0,0.00
2013-3-25,36,22,2,-100,-100,-100,0,0,100,0.00,40.00,0,-999,0,0.00
2013-3-26,42,33,27,-100,-100,-100,0,0,100,0.00,40.00,0,-999,0,0.01
2013-3-27,45,32,21,-100,-100,-100,0,0,100,0.00,40.00,0,-999,0,0.00
2013-3-28,46,37,27,-100,-100,-100,0,0,100,0.00,40.00,0,-999,0,0.00
2013-3-29,45,38,31,-100,-100,-100,0,0,100,0.00,40.00,0,-999,0,0.00
2013-3-30,47,38,30,-100,-100,-100,0,0,100,0.00,40.00,0,-999,0,0.00
2013-3-31,54,40,26,-100,-100,-100,0,0,100,0.00,40.00,0,-999,0,0.00
2013-4-1,56,41,29,-100,-100,-100,0,0,100,0.00,40.00,0,-999,0,0.00
2013-4-2,56,41,28,-100,-100,-100,0,0,100,0.00,40.00,0,-999,0,0.00
2013-4-3,54,42,34,-100,-100,-100,0,0,100,0.00,40.00,0,-999,0,0.00
2013-4-4,52,41,31,-100,-100,-100,0,0,100,0.00,40.00,0,-999,0,0.00
2013-4-5,47,39,35,-100,-100,-100,0,0,100,0.00,40.00,0,-999,0,0.00
2013-4-6,44,38,33,-100,-100,-100,0,0,100,0.00,40.00,0,-999,0,0.00
2013-4-7,39,34,30,-100,-100,-100,0,0,100,0.00,40.00,0,-999,0,0.01
2013-4-8,32,25,16,-100,-100,-100,0,0,100,0.00,40.00,0,-999,0,0.01
2013-4-9,40,26,11,-100,-100,-100,0,0,100,0.00,40.00,0,-999,0,0.01
2013-4-10,46,35,27,-100,-100,-100,0,0,100,0.00,40.00,0,-999,0,0.01
2013-4-11,42,38,33,-100,-100,-100,0,0,100,0.00,40.00,0,-999,0,0.01
2013-4-12,49,37,24,-100,-100,-100,0,0,100,0.00,40.00,0,-999,0,0.02
2013-4-13,39,32,24,-100,-100,-100,0,0,100,0.00,40.00,0,-999,0,0.00
2013-4-14,37,28,23,-100,-100,-100,0,0,100,0.00,40.00,0,-999,0,0.01
2013-4-15,32,22,16,-100,-100,-100,0,0,100,0.00,40.00,0,-999,0,0.01
2013-4-16,31,21,12,-100,-100,-100,0,0,100,0.00,40.00,0,-999,0,0.00
2013-4-17,35,24,11,-100,-100,-100,0,0,100,0.00,40.00,0,-999,0,0.00
2013-4-18,44,32,21,-100,-100,-100,0,0,100,0.00,40.00,0,-999,0,0.01
2013-4-19,45,38,32,-100,-100,-100,0,0,100,0.00,40.00,0,-999,0,0.01
2013-4-20,45,38,34,-100,-100,-100,0,0,100,0.00,40.00,0,-999,0,0.01
2013-4-21,44,35,21,-100,-100,-100,0,0,100,0.00,40.00,0,-999,0,0.00
2013-4-22,34,25,17,-100,-100,-100,0,0,100,0.00,40.00,0,-999,0,0.00
2013-4-23,39,27,14,-100,-100,-100,0,0,100,0.00,40.00,0,-999,0,0.00
2013-4-24,50,46,40,-100,-100,-100,0,0,100,0.00,40.00,0,-999,0,0.02
2013-4-25,54,43,33,-100,-100,-100,0,0,100,0.00,40.00,0,-999,0,0.01
2013-4-26,59,44,29,-100,-100,-100,0,0,100,0.00,40.00,0,-999,0,0.01
2013-4-27,60,47,32,-100,-100,-100,0,0,100,0.00,40.00,0,-999,0,0.01
2013-4-28,52,44,40,-100,-100,-100,0,0,100,0.00,40.00,0,-999,0,0.00
2013-4-29,43,38,29,-100,-100,-100,0,0,100,0.00,40.00,0,-999,0,0.00
2013-4-30,36,29,25,-100,-100,-100,0,0,100,0.00,40.00,0,-999,0,0.00
2013-5-1,41,30,19,-100,-100,-100,0,0,100,0.00,40.00,0,-999,0,0.02
2013-5-2,56,40,23,-100,-100,-100,0,0,100,0.00,40.00,0,-999,0,0.02
2013-5-3,47,41,34,-100,-100,-100,0,0,100,0.00,40.00,0,-999,0,0.02
2013-5-4,50,42,36,-100,-100,-100,0,0,100,0.00,40.00,0,-999,0,0.00
2013-5-5,59,48,36,-100,-100,-100,0,0,100,0.00,40.00,0,-999,0,0.02
2013-5-6,65,52,33,-100,-100,-100,0,0,100,0.00,40.00,0,-999,0,0.01
2013-5-7,65,49,35,-100,-100,-100,0,0,100,0.00,40.00,0,-999,0,0.00
2013-5-8,62,50,38,-100,-100,-100,0,0,100,0.00,40.00,0,-999,0,0.01
2013-5-9,67,50,35,-100,-100,-100,0,0,100,0.00,40.00,0,-999,0,0.00
2013-5-10,66,51,36,-100,-100,-100,0,0,100,0.00,40.00,0,-999,0,0.01
2013-5-11,69,53,37,-100,-100,-100,0,0,100,0.00,40.00,0,-999,0,0.00
2013-5-12,71,58,41,-100,-100,-100,0,0,100,0.00,40.00,0,-999,0,0.01
2013-5-13,74,59,44,-100,-100,-100,0,0,100,0.00,40.00,0,-999,0,0.01
2013-5-14,63,53,40,-100,-100,-100,0,0,100,0.00,40.00,0,-999,0,0.00
2013-5-15,61,48,37,-100,-100,-100,0,0,100,0.00,40.00,0,-999,0,0.00
2013-5-16,53,46,37,-100,-100,-100,0,0,100,0.00,40.00,0,-999,0,0.00
2013-5-17,49,45,41,-100,-100,-100,0,0,100,0.00,40.00,0,-999,0,0.00
2013-5-18,52,46,38,-100,-100,-100,0,0,100,0.00,40.00,0,-999,0,0.02
2013-5-19,53,45,37,-100,-100,-100,0,0,100,0.00,40.00,0,-999,0,0.01
2013-5-20,59,49,43,-100,-100,-100,0,0,100,0.00,40.00,0,-999,0,0.00
2013-5-21,62,50,36,-100,-100,-100,0,0,100,0.00,40.00,0,-999,0,0.02
2013-5-22,57,48,40,-100,-100,-100,0,0,100,0.00,40.00,0,-999,0,0.00
2013-5-23,47,38,34,-100,-100,-100,0,0,100,0.00,40.00,0,-999,0,0.02
2013-5-24,48,41,34,-100,-100,-100,0,0,100,0.00,40.00,0,-999,0,0.01
2013-5-25,57,44,31,-100,-100,-100,0,0,100,0.00,40.00,0,-999,0,0.02
2013-5-26,59,43,33,-100,-100,-100,0,0,100,0.00,40.00,0,-999,0,0.00
2013-5-27,53,46,39,-100,-100,-100,0,0,100,0.00,40.00,0,-999,0,0.02
2013-5-28,52,45,40,-100,-100,-100,0,0,100,0.00,40.00,0,-999,0,0.01
2013-5-29,58,46,37,-100,-100,-100,0,0,100,0.00,40.00,0,-999,0,0.01
2013-5-30,50,43,38,-100,-100,-100,0,0,100,0.00,40.00,0,-999,0,0.00
2013-5-31,52,43,35,-100,-100,-100,0,0,100,0.00,40.00,0,-999,0,0.05
2013-6-1,60,48,29,-100,-100,-100,0,0,100,0.00,40.00,0,-999,0,0.00
2013-6-2,54,46,39,-100,-100,-100,0,0,100,0.00,40.00,0,-999,0,0.01
2013-6-3,54,45,38,-100,-100,-100,0,0,100,0.00,40.00,0,-999,0,0.01
2013-6-4,56,46,35,-100,-100,-100,0,0,100,0.00,40.00,0,-999,0,0.00
2013-6-5,66,51,33,-100,-100,-100,0,0,100,0.00,40.00,0,-999,0,0.00
2013-6-6,70,58,45,-100,-100,-100,0,0,100,0.00,40.00,0,-999,0,0.00
2013-6-7,68,56,44,-100,-100,-100,0,0,100,0.00,40.00,0,-999,0,0.00
2013-6-8,69,59,47,-100,-100,-100,0,0,100,0.00,40.00,0,-999,0,0.01
2013-6-9,74,60,44,-100,-100,-100,0,0,100,0.00,40.00,0,-999,0,0.00
2013-6-10,75,59,41,-100,-100,-100,0,0,100,0.00,40.00,0,-999,0,0.00
2013-6-11,64,54,45,-100,-100,-100,0,0,100,0.00,40.00,0,-999,0,0.00
2013-6-12,71,59,43,-100,-100,-100,0,0,100,0.00,40.00,0,-999,0,0.00
2013-6-13,47,44,37,-100,-100,-100,0,0,100,0.00,40.00,0,-999,0,0.02
2013-6-14,50,43,35,-100,-100,-100,0,0,100,0.00,40.00,0,-999,0,0.01
2013-6-15,64,52,31,-100,-100,-100,0,0,100,0.00,40.00,0,-999,0,0.00
2013-6-16,69,56,37,-100,-100,-100,0,0,100,0.00,40.00,0,-999,0,0.00
2013-6-17,74,62,43,-100,-100,-100,0,0,100,0.00,40.00,0,-999,0,0.00
2013-6-18,77,62,44,-100,-100,-100,0,0,100,0.00,40.00,0,-999,0,0.00
2013-6-19,52,48,40,-100,-100,-100,0,0,100,0.00,40.00,0,-999,0,0.00
2013-6-20,40,39,38,-100,-100,-100,0,0,100,0.00,40.00,0,-999,0,0.00
2013-6-24,67,57,48,-100,-100,-100,0,0,100,0.00,40.00,0,-999,0,0.00
2013-6-25,56,50,47,-100,-100,-100,0,0,100,0.00,40.00,0,-999,0,0.00
2013-6-26,57,53,49,-100,-100,-100,0,0,100,0.00,40.00,0,-999,0,0.01
2013-6-27,74,61,44,-100,-100,-100,0,0,100,0.00,40.00,0,-999,0,0.00
2013-6-28,81,67,48,-100,-100,-100,0,0,100,0.00,40.00,0,-999,0,0.00
2013-6-29,78,65,51,-100,-100,-100,0,0,100,0.00,40.00,0,-999,0,0.00
2013-6-30,82,67,50,-100,-100,-100,0,0,100,0.00,40.00,0,-999,0,0.01
2013-7-1,82,66,53,-100,-100,-100,0,0,100,0.00,40.00,0,-999,0,0.00
2013-7-2,83,68,54,-100,-100,-100,0,0,100,0.00,40.00,0,-999,0,0.00
2013-7-3,80,70,61,-100,-100,-100,0,0,100,0.00,40.00,0,-999,0,0.00
2013-7-4,77,65,50,-100,-100,-100,0,0,100,0.00,40.00,0,-999,0,0.00
2013-7-5,71,56,48,-100,-100,-100,0,0,100,0.00,40.00,0,-999,0,0.00
2013-7-6,75,57,43,-100,-100,-100,0,0,100,0.00,40.00,0,-999,0,0.00
2013-7-7,77,66,48,-100,-100,-100,0,0,100,0.00,40.00,0,-999,0,0.00
2013-7-8,74,60,50,-100,-100,-100,0,0,100,0.00,40.00,0,-999,0,0.00
2013-7-9,76,62,49,-100,-100,-100,0,0,100,0.00,40.00,0,-999,0,0.00
2013-7-10,82,65,45,-100,-100,-100,0,0,100,0.00,40.00,0,-999,0,0.00
2013-7-11,68,57,51,-100,-100,-100,0,0,100,0.00,40.00,0,-999,0,0.00
2013-7-12,74,61,43,-100,-100,-100,0,0,100,0.00,40.00,0,-999,0,0.00
2013-7-13,72,59,44,-100,-100,-100,0,0,100,0.00,40.00,0,-999,0,0.01
2013-7-14,72,58,43,-100,-100,-100,0,0,100,0.00,40.00,0,-999,0,0.00
2013-7-15,81,58,44,-100,-100,-100,0,0,100,0.00,40.00,0,-999,0,0.00
2013-7-16,78,60,50,-100,-100,-100,0,0,100,0.00,40.00,0,-999,0,0.00
2013-7-17,75,62,52,-100,-100,-100,0,0,100,0.00,40.00,0,-999,0,0.02
2013-7-18,76,66,53,-100,-100,-100,0,0,100,0.00,40.00,0,-999,0,0.01
2013-7-19,78,62,45,-100,-100,-100,0,0,100,0.00,40.00,0,-999,0,0.01
2013-7-20,79,62,45,-100,-100,-100,0,0,100,0.00,40.00,0,-999,0,0.01
2013-7-21,79,64,44,-100,-100,-100,0,0,100,0.00,40.00,0,-999,0,0.00
2013-7-22,77,61,45,-100,-100,-100,0,0,100,0.00,40.00,0,-999,0,0.00
2013-7-23,80,64,44,-100,-100,-100,0,0,100,0.00,40.00,0,-999,0,0.01
2013-7-24,82,69,50,-100,-100,-100,0,0,100,0.00,40.00,0,-999,0,0.00
2013-7-25,81,64,51,-100,-100,-100,0,0,100,0.00,40.00,0,-999,0,0.00
2013-7-26,80,62,49,-100,-100,-100,0,0,100,0.00,40.00,0,-999,0,0.00
2013-7-27,76,63,48,-100,-100,-100,0,0,100,0.00,40.00,0,-999,0,0.01
2013-7-28,75,60,48,-100,-100,-100,0,0,100,0.00,40.00,0,-999,0,0.01
2013-7-29,74,61,47,-100,-100,-100,0,0,100,0.00,40.00,0,-999,0,0.01
2013-7-30,71,62,49,-100,-100,-100,0,0,100,0.00,40.00,0,-999,0,0.00
2013-7-31,80,62,43,-100,-100,-100,0,0,100,0.00,40.00,0,-999,0,0.02
2013-8-1,62,53,48,-100,-100,-100,0,0,100,0.00,40.00,0,-999,0,0.00
2013-8-2,65,54,40,-100,-100,-100,0,0,100,0.00,40.00,0,-999,0,0.04
2013-8-3,70,57,44,-100,-100,-100,0,0,100,0.00,40.00,0,-999,0,0.01
2013-8-4,74,59,43,-100,-100,-100,0,0,100,0.00,40.00,0,-999,0,0.01
2013-8-5,75,61,44,-100,-100,-100,0,0,100,0.00,40.00,0,-999,0,0.00
2013-8-6,72,62,47,-100,-100,-100,0,0,100,0.00,40.00,0,-999,0,0.00
2013-8-7,78,60,43,-100,-100,-100,0,0,100,0.00,40.00,0,-999,0,0.01
2013-8-8,77,62,45,-100,-100,-100,0,0,100,0.00,40.00,0,-999,0,0.00
2013-8-9,72,58,50,-100,-100,-100,0,0,100,0.00,40.00,0,-999,0,0.00
2013-8-10,77,60,43,-100,-100,-100,0,0,100,0.00,40.00,0,-999,0,0.02
2013-8-11,71,60,48,-100,-100,-100,0,0,100,0.00,40.00,0,-999,0,0.00
2013-8-12,78,62,49,-100,-100,-100,0,0,100,0.00,40.00,0,-999,0,0.00
2013-8-13,73,60,43,-100,-100,-100,0,0,100,0.00,40.00,0,-999,0,0.01
2013-8-14,79,61,42,-100,-100,-100,0,0,100,0.00,40.00,0,-999,0,0.01
2013-8-15,84,69,48,-100,-100,-100,0,0,100,0.00,40.00,0,-999,0,0.00
2013-8-16,84,67,49,-100,-100,-100,0,0,100,0.00,40.00,0,-999,0,0.00
2013-8-17,80,72,60,-100,-100,-100,0,0,100,0.00,40.00,0,-999,0,0.00
2013-8-18,79,70,57,-100,-100,-100,0,0,100,0.00,40.00,0,-999,0,0.00
2013-8-19,81,63,47,-100,-100,-100,0,0,100,0.00,40.00,0,-999,0,0.00
2013-8-20,77,62,46,-100,-100,-100,0,0,100,0.00,40.00,0,-999,0,0.00
2013-8-21,80,57,44,-100,-100,-100,0,0,100,0.00,40.00,0,-999,0,0.00
2013-8-22,73,60,52,-100,-100,-100,0,0,100,0.00,40.00,0,-999,0,0.00
2013-8-23,71,58,48,-100,-100,-100,0,0,100,0.00,40.00,0,-999,0,0.00
2013-8-24,73,63,47,-100,-100,-100,0,0,100,0.00,40.00,0,-999,0,0.00
2013-8-25,77,58,45,-100,-100,-100,0,0,100,0.00,40.00,0,-999,0,0.01
2013-8-26,72,57,45,-100,-100,-100,0,0,100,0.00,40.00,0,-999,0,0.01
2013-8-27,61,53,48,-100,-100,-100,0,0,100,0.00,40.00,0,-999,0,0.00
2013-8-28,67,61,55,-100,-100,-100,0,0,100,0.00,40.00,0,-999,0,0.00
2013-8-29,77,59,46,-100,-100,-100,0,0,100,0.00,40.00,0,-999,0,0.01
2013-8-30,76,56,44,-100,-100,-100,0,0,100,0.00,40.00,0,-999,0,0.00
2013-8-31,74,57,44,-100,-100,-100,0,0,100,0.00,40.00,0,-999,0,0.00
2013-9-1,80,64,45,-100,-100,-100,0,0,100,0.00,40.00,0,-999,0,0.00
2013-9-2,79,64,54,-100,-100,-100,0,0,100,0.00,40.00,0,-999,0,0.01
2013-9-3,74,60,53,-100,-100,-100,0,0,100,0.00,40.00,0,-999,0,0.02
2013-9-4,75,60,49,-100,-100,-100,0,0,100,0.00,40.00,0,-999,0,0.00
2013-9-5,70,59,51,-100,-100,-100,0,0,100,0.00,40.00,0,-999,0,0.00
2013-9-6,71,56,47,-100,-100,-100,0,0,100,0.00,40.00,0,-999,0,0.04
2013-9-7,75,60,47,-100,-100,-100,0,0,100,0.00,40.00,0,-999,0,0.00
2013-9-8,66,53,42,-100,-100,-100,0,0,100,0.00,40.00,0,-999,0,0.00
2013-9-9,64,51,43,-100,-100,-100,0,0,100,0.00,40.00,0,-999,0,0.00
2013-9-10,73,53,37,-100,-100,-100,0,0,100,0.00,40.00,0,-999,0,0.02
2013-9-11,76,63,41,-100,-100,-100,0,0,100,0.00,40.00,0,-999,0,0.00
2013-9-12,68,58,49,-100,-100,-100,0,0,100,0.00,40.00,0,-999,0,0.01
2013-9-13,63,55,49,-100,-100,-100,0,0,100,0.00,40.00,0,-999,0,0.00
2013-9-14,68,56,50,-100,-100,-100,0,0,100,0.00,40.00,0,-999,0,0.01
2013-9-15,69,57,51,-100,-100,-100,0,0,100,0.00,40.00,0,-999,0,0.01
2013-9-16,70,55,46,-100,-100,-100,0,0,100,0.00,40.00,0,-999,0,0.04
2013-9-17,54,46,41,-100,-100,-100,0,0,100,0.00,40.00,0,-999,0,0.00
2013-9-18,43,41,39,-100,-100,-100,0,0,100,0.00,40.00,0,-999,0,0.00
2013-9-19,58,44,32,-100,-100,-100,0,0,100,0.00,40.00,0,-999,0,0.02
2013-9-20,69,47,31,-100,-100,-100,0,0,100,0.00,40.00,0,-999,0,0.02
2013-9-21,68,51,35,-100,-100,-100,0,0,100,0.00,40.00,0,-999,0,0.00
2013-9-22,54,48,40,-100,-100,-100,0,0,100,0.00,40.00,0,-999,0,0.01
2013-9-23,55,45,38,-100,-100,-100,0,0,100,0.00,40.00,0,-999,0,0.00
2013-9-24,43,40,37,-100,-100,-100,0,0,100,0.00,40.00,0,-999,0,0.00
2013-9-25,42,38,35,-100,-100,-100,0,0,100,0.00,40.00,0,-999,0,0.02
2013-9-26,37,34,30,-100,-100,-100,0,0,100,0.00,40.00,0,-999,0,0.01
2013-9-27,38,32,27,-100,-100,-100,0,0,100,0.00,40.00,0,-999,0,0.02
2013-9-28,48,43,38,-100,-100,-100,0,0,100,0.00,40.00,0,-999,0,0.01
2013-9-29,48,42,37,-100,-100,-100,0,0,100,0.00,40.00,0,-999,0,0.00
2013-9-30,46,38,34,-100,-100,-100,0,0,100,0.00,40.00,0,-999,0,0.07
2013-10-1,45,40,35,-100,-100,-100,0,0,100,0.00,40.00,0,-999,0,0.00
2013-10-2,46,39,31,-100,-100,-100,0,0,100,0.00,40.00,0,-999,0,0.01
2013-10-3,35,33,30,-100,-100,-100,0,0,100,0.00,40.00,0,-999,0,0.00
2013-10-4,27,26,25,-100,-100,-100,0,0,100,0.00,40.00,0,-999,0,0.00
2013-10-5,54,37,25,-100,-100,-100,0,0,100,0.00,40.00,0,-999,0,0.02
2013-10-6,60,43,30,-100,-100,-100,0,0,100,0.00,40.00,0,-999,0,0.01
2013-10-7,60,44,30,-100,-100,-100,0,0,100,0.00,40.00,0,-999,0,0.00
2013-10-8,43,40,36,-100,-100,-100,0,0,100,0.00,40.00,0,-999,0,0.00
2013-10-9,53,42,30,-100,-100,-100,0,0,100,0.00,40.00,0,-999,0,0.02
2013-10-10,51,42,29,-100,-100,-100,0,0,100,0.00,40.00,0,-999,0,0.00
2013-10-11,45,38,33,-100,-100,-100,0,0,100,0.00,40.00,0,-999,0,0.00
2013-10-12,45,32,26,-100,-100,-100,0,0,100,0.00,40.00,0,-999,0,0.01
2013-10-13,48,37,29,-100,-100,-100,0,0,100,0.00,40.00,0,-999,0,0.01
2013-10-14,38,35,31,-100,-100,-100,0,0,100,0.00,40.00,0,-999,0,0.00
2013-10-15,47,35,23,-100,-100,-100,0,0,100,0.00,40.00,0,-999,0,0.00
2013-10-16,44,31,24,-100,-100,-100,0,0,100,0.00,40.00,0,-999,0,0.00
2013-10-17,40,36,32,-100,-100,-100,0,0,100,0.00,40.00,0,-999,0,0.00
2013-10-18,40,32,23,-100,-100,-100,0,0,100,0.00,40.00,0,-999,0,0.00
2013-10-19,52,44,37,-100,-100,-100,0,0,100,0.00,40.00,0,-999,0,0.00
2013-10-20,41,39,34,-100,-100,-100,0,0,100,0.00,40.00,0,-999,0,0.00
2013-10-23,26,26,26,-100,-100,-100,0,0,100,0.00,40.00,0,-999,0,0.00
2013-10-24,58,58,58,-100,-100,-100,0,0,100,0.00,40.00,0,-999,0,0.00
2013-10-25,29,29,29,-100,-100,-100,0,0,100,0.00,40.00,0,-999,0,0.00
2013-10-26,50,50,50,-100,-100,-100,0,0,100,0.00,40.00,0,-999,0,0.00
2013-10-27,51,46,40,-100,-100,-100,0,0,100,0.00,40.00,0,-999,0,0.00
2013-10-28,23,23,23,-100,-100,-100,0,0,100,0.00,40.00,0,-999,0,0.00
2013-10-29,33,33,33,-100,-100,-100,0,0,100,0.00,40.00,0,-999,0,0.00
2013-10-30,33,33,33,-100,-100,-100,0,0,100,0.00,40.00,0,-999,0,0.00
2013-10-31,35,34,33,-100,-100,-100,0,0,100,0.00,40.00,0,-999,0,0.00
2013-11-1,43,36,32,-100,-100,-100,0,0,100,0.00,40.00,0,-999,0,0.00
2013-11-2,46,40,34,-100,-100,-100,0,0,100,0.00,40.00,0,-999,0,0.00
2013-11-3,29,26,24,-100,-100,-100,0,0,100,0.00,40.00,0,-999,0,0.00
2013-11-4,22,22,22,-100,-100,-100,0,0,100,0.00,40.00,0,-999,0,0.00
2013-11-5,28,23,13,-100,-100,-100,0,0,100,0.00,40.00,0,-999,0,0.01
2013-11-7,36,36,36,-100,-100,-100,0,0,100,0.00,40.00,0,-999,0,0.00
2013-11-8,34,32,29,-100,-100,-100,0,0,100,0.00,40.00,0,-999,0,0.00
2013-11-9,32,32,32,-100,-100,-100,0,0,100,0.00,40.00,0,-999,0,0.00
2013-11-10,42,38,35,-100,-100,-100,0,0,100,0.00,40.00,0,-999,0,0.00
2013-11-11,36,34,31,-100,-100,-100,0,0,100,0.00,40.00,0,-999,0,0.00
2013-11-13,42,40,39,-100,-100,-100,0,0,100,0.00,40.00,0,-999,0,0.00
2013-11-14,31,31,31,-100,-100,-100,0,0,100,0.00,40.00,0,-999,0,0.00
2013-11-15,35,35,35,-100,-100,-100,0,0,100,0.00,40.00,0,-999,0,0.00
2013-11-16,27,27,27,-100,-100,-100,0,0,100,0.00,40.00,0,-999,0,0.00
2013-11-18,42,34,27,-100,-100,-100,0,0,100,0.00,40.00,0,-999,0,0.00
2013-11-19,41,38,35,-100,-100,-100,0,0,100,0.00,40.00,0,-999,0,0.00
2013-11-20,12,12,12,-100,-100,-100,0,0,100,0.00,40.00,0,-999,0,0.00
2013-11-21,18,15,12,-100,-100,-100,0,0,100,0.00,40.00,0,-999,0,0.00
2013-11-22,15,15,15,-100,-100,-100,0,0,100,0.00,40.00,0,-999,0,0.00
2013-11-24,25,25,25,-100,-100,-100,0,0,100,0.00,40.00,0,-999,0,0.00
2013-11-27,24,24,23,-100,-100,-100,0,0,100,0.00,40.00,0,-999,0,0.00
2013-12-2,27,27,27,-100,-100,-100,0,0,100,0.00,40.00,0,-999,0,0.00
2013-12-3,1,-4,-8,-100,-100,-100,0,0,100,0.00,40.00,0,-999,0,0.00
2013-12-6,-8,-10,-13,-100,-100,-100,0,0,100,0.00,40.00,0,-999,0,0.00
2013-12-7,-4,-12,-19,-100,-100,-100,0,0,100,0.00,40.00,0,-999,0,0.00
2013-12-8,-9,-9,-9,-100,-100,-100,0,0,100,0.00,40.00,0,-999,0,0.00
2013-12-9,14,9,4,-100,-100,-100,0,0,100,0.00,40.00,0,-999,0,0.00
2013-12-10,21,19,17,-100,-100,-100,0,0,100,0.00,40.00,0,-999,0,0.00
2013-12-11,24,22,20,-100,-100,-100,0,0,100,0.00,40.00,0,-999,0,0.00
2013-12-12,24,15,9,-100,-100,-100,0,0,100,0.00,40.00,0,-999,0,0.00
2013-12-13,32,29,24,-100,-100,-100,0,0,100,0.00,40.00,0,-999,0,0.00
2013-12-14,30,29,28,-100,-100,-100,0,0,100,0.00,40.00,0,-999,0,0.00
2013-12-15,38,38,38,-100,-100,-100,0,0,100,0.00,40.00,0,-999,0,0.00
2013-12-16,40,35,30,-100,-100,-100,0,0,100,0.00,40.00,0,-999,0,0.00
2013-12-17,35,32,26,-100,-100,-100,0,0,100,0.00,40.00,0,-999,0,0.00
2013-12-18,34,34,33,-100,-100,-100,0,0,100,0.00,40.00,0,-999,0,0.00
2013-12-19,29,25,18,-100,-100,-100,0,0,100,0.00,40.00,0,-999,0,0.00
2013-12-21,26,24,23,-100,-100,-100,0,0,100,0.00,40.00,0,-999,0,0.01
2013-12-22,33,30,26,-100,-100,-100,0,0,100,0.00,40.00,0,-999,0,0.00
2013-12-23,36,33,32,-100,-100,-100,0,0,100,0.00,40.00,0,-999,0,0.01
2013-12-24,23,22,19,-100,-100,-100,0,0,100,0.00,40.00,0,-999,0,0.00
2013-12-25,29,20,12,-100,-100,-100,0,0,100,0.00,40.00,0,-999,0,0.00
2013-12-26,39,36,32,-100,-100,-100,0,0,100,0.00,40.00,0,-999,0,0.00
2013-12-31,33,33,33,-100,-100,-100,0,0,100,0.00,40.00,0,-999,0,0.00
2014-1-1,32,28,23,-100,-100,-100,0,0,100,0.00,40.00,0,-999,0,0.00
2014-1-2,32,26,19,-100,-100,-100,0,0,100,0.00,40.00,0,-999,0,0.00